Monterey, CA

3:52 PM PST on December 02, 2016 (GMT -0800)
Monterey Peninsula

Weather History for KMRY - September, 2012

Change the Weather History Date:

Saturday, September 8, 2012

  Actual Average Record
Temperature  
Mean Temperature 58 °F 62 °F  
Max Temperature 64 °F 70 °F 94 °F (2015)
Min Temperature 52 °F 54 °F 47 °F (2002)
Degree Days  
Heating Degree Days 7    
Month to date heating degree days 56  
Since 1 July heating degree days 385  
Cooling Degree Days 0    
Month to date cooling degree days 0  
Year to date cooling degree days 0  
Growing Degree Days 8 (Base 50)    
Moisture  
Dew Point 51 °F    
Average Humidity 79    
Maximum Humidity 93    
Minimum Humidity 65    
Precipitation  
Precipitation 0.00 in - 0.22 in (1999)
Month to date precipitation 0.00  
Year to date precipitation 7.72  
Since 1 July precipitation 0.07  
Sea Level Pressure  
Sea Level Pressure 30.07 in    
Wind  
Wind Speed 7 mph (SW)    
Max Wind Speed 17 mph    
Max Gust Speed 24 mph    
Visibility 10 miles    
Events      
T = Trace of Precipitation, MM = Missing Value Source: NWS Daily Summary

Daily Weather History Graph

Daily Weather History Graph

Search for Another Location

Airport or City:

Trip Planner

Search our weather history database for the weather conditions in past years. The results will help you decide how hot, cold, wet, or windy it might be!

Date:

Astronomy

Sep. 08, 2012 Rise Set
Actual Time 6:44 AM PDT 7:24 PM PDT
Civil Twilight 6:18 AM PDT 7:50 PM PDT
Nautical Twilight 5:47 AM PDT 8:21 PM PDT
Astronomical Twilight 5:16 AM PDT 8:52 PM PDT
Moon No Moon Rise 2:18 PM PDT (9/8)
Length of Visible Light 13h 31m
Length of Day
12h 39m
Waning Gibbous, 48% of the Moon is Illuminated
Sep 8
Waning Gibbous
Sep 15
New
Sep 22
First Quarter
Sep 29
Full
Oct 8
Last Quarter

Hourly Weather History & Observations

Time (PDT) Temp. Dew Point Humidity Pressure Visibility Wind Dir Wind Speed Gust Speed Precip Events Conditions
12:54 AM 55.0 °F 51.1 °F 86% 30.10 in 10.0 mi South 5.8 mph - N/A   Clear
1:54 AM 55.0 °F 51.1 °F 86% 30.09 in 10.0 mi SSW 4.6 mph - N/A   Clear
2:54 AM 55.0 °F 51.1 °F 86% 30.08 in 10.0 mi Calm Calm - N/A   Clear
3:54 AM 53.1 °F 48.9 °F 86% 30.08 in 10.0 mi Calm Calm - N/A   Clear
4:42 AM 53.6 °F 50.0 °F 88% 30.05 in 10.0 mi SSW 3.5 mph - N/A   Partly Cloudy
4:54 AM 54.0 °F 51.1 °F 90% 30.09 in 10.0 mi South 3.5 mph - N/A   Partly Cloudy
5:54 AM 54.0 °F 51.1 °F 90% 30.09 in 10.0 mi South 3.5 mph - N/A   Mostly Cloudy
6:54 AM 55.0 °F 52.0 °F 89% 30.09 in 10.0 mi Calm Calm - N/A   Overcast
7:54 AM 55.0 °F 52.0 °F 89% 30.10 in 8.0 mi Calm Calm - N/A   Overcast
8:37 AM 57.2 °F 53.6 °F 88% 30.06 in 10.0 mi Calm Calm - N/A   Scattered Clouds
8:54 AM 57.9 °F 53.1 °F 84% 30.10 in 10.0 mi WNW 3.5 mph - N/A   Scattered Clouds
9:54 AM 61.0 °F 53.1 °F 75% 30.10 in 10.0 mi WNW 4.6 mph - N/A   Clear
10:54 AM 60.1 °F 52.0 °F 75% 30.11 in 10.0 mi West 12.7 mph 17.3 mph N/A   Clear
11:54 AM 61.0 °F 52.0 °F 72% 30.10 in 10.0 mi WNW 12.7 mph - N/A   Clear
12:54 PM 62.6 °F 51.8 °F 68% 30.05 in 10.0 mi WNW 11.5 mph - N/A   Clear
1:54 PM 63.0 °F 52.0 °F 67% 30.07 in 10.0 mi West 12.7 mph - N/A   Clear
2:54 PM 63.0 °F 52.0 °F 67% 30.06 in 10.0 mi WSW 12.7 mph - N/A   Clear
3:54 PM 62.1 °F 51.1 °F 67% 30.05 in 10.0 mi West 13.8 mph - N/A   Clear
4:54 PM 62.1 °F 50.0 °F 65% 30.05 in 10.0 mi WSW 10.4 mph 23.0 mph N/A   Clear
5:54 PM 61.0 °F 50.0 °F 67% 30.05 in 10.0 mi WSW 11.5 mph - N/A   Clear
6:54 PM 57.9 °F 50.0 °F 75% 30.04 in 10.0 mi SW 10.4 mph - N/A   Clear
7:54 PM 57.0 °F 51.1 °F 81% 30.04 in 10.0 mi SSW 8.1 mph - N/A   Clear
8:54 PM 57.0 °F 50.0 °F 77% 30.04 in 10.0 mi SSW 9.2 mph - N/A   Clear
9:54 PM 57.0 °F 50.0 °F 77% 30.05 in 10.0 mi SSW 5.8 mph - N/A   Clear
10:54 PM 55.9 °F 50.0 °F 80% 30.05 in 10.0 mi SSW 8.1 mph - N/A   Clear
11:54 PM 55.9 °F 50.0 °F 80% 30.05 in 10.0 mi SSW 6.9 mph - N/A   Clear